Miscellaneous Local Product
Issued by NWS Hastings, NE

Home | Current Version | Previous Version | Graphics & Text | Print | Product List | Glossary On
Versions: 1 2 3 4 5 6 7 8 9 10 11 12 13 14 15 16 17 18 19 20 21 22 23 24 25 26 27 28 29 30 31 32 33 34 35 36 37 38 39 40 41 42 43 44 45 46 47 48 49 50
280
AXUS43 KGID 171702
MISGRI

GID CWA HOURLY WEATHER ROUNDUP
NATIONAL WEATHER SERVICE HASTINGS NE
1200 PM CDT TUE OCT 17 2017

NOTE: "FAIR" INDICATES FEW OR NO CLOUDS BELOW 12,000 FEET WITH NO
SIGNIFICANT WEATHER AND/OR OBSTRUCTIONS TO VISIBILITY.

...SOUTH CENTRAL NEBRASKA...

CITY           SKY/WX    TMP DP  RH WIND       PRES   REMARKS
GRAND ISLAND   SUNNY     69  42  37 NW3       30.10F
HASTINGS       SUNNY     69  41  36 NW5       30.10F
KEARNEY        SUNNY     70  39  32 CALM      30.12F
ORD            SUNNY     68  44  42 NW3       30.08F
YORK           SUNNY     63  45  51 CALM      30.10S
AURORA         SUNNY     67  41  38 CALM      30.09S
LEXINGTON      SUNNY     66  42  40 W3        30.13S
HOLDREGE       SUNNY     69  38  32 CALM      30.12F
HEBRON         SUNNY     64  42  43 S7        30.11S

...NEBRASKA PANHANDLE...

CITY           SKY/WX    TMP DP  RH WIND       PRES   REMARKS
CHADRON        SUNNY     67  19  16 W5        30.09F
ALLIANCE       SUNNY     69  19  15 W16G23    30.12F
SCOTTSBLUFF    SUNNY     61  29  29 W3        30.15F
SIDNEY         SUNNY     74  15  10 SW20G26   30.17F

...WESTERN AND NORTH CENTRAL NEBRASKA...

CITY           SKY/WX    TMP DP  RH WIND       PRES   REMARKS
VALENTINE      SUNNY     74  34  23 SW9       30.06F
AINSWORTH      SUNNY     72  35  25 SW14      30.08F
ONEILL         SUNNY     70  46  41 SW5       30.08F
BROKEN BOW     SUNNY     70  45  40 S3        30.11F
IMPERIAL       SUNNY     68  28  22 VRB3      30.16F
NORTH PLATTE   SUNNY     64  43  46 W5        30.13F
MCCOOK         SUNNY     63  41  44 W6        30.14F

...EASTERN NEBRASKA...

CITY           SKY/WX    TMP DP  RH WIND       PRES   REMARKS
NORFOLK        SUNNY     67  44  43 CALM      30.06S
SO SIOUX CITY  SUNNY     63  46  54 SE6       30.07F
TEKAMAH        SUNNY     63  41  44 VRB5      30.09F
COLUMBUS       SUNNY     62  44  51 S3        30.09S
ALBION         SUNNY     70  40  33 CALM      30.08F
OMAHA EPPLEY   SUNNY     62  43  49 S7        30.10F
OFFUTT AFB     SUNNY     63  44  49 S8        30.09F
MILLARD        SUNNY     64  46  51 SW3       30.10S
LINCOLN        SUNNY     63  44  50 S8        30.10F
NEBRASKA CITY  SUNNY     65  45  48 S9        30.11F
BEATRICE       SUNNY     63  44  51 S9        30.10F
FALLS CITY     SUNNY     65  43  44 SW15G22   30.12F

...NORTHERN KANSAS...

CITY           SKY/WX    TMP DP  RH WIND       PRES   REMARKS
GOODLAND       SUNNY     71  29  21 E5        30.18F
HILL CITY      SUNNY     72  36  26 VRB5      30.14F
NORTON         SUNNY     73  28  19 CALM      30.13S
PHILLIPSBURG   SUNNY     70  37  30 CALM      30.11F
SMITH CENTER   SUNNY     63  43  48 CALM      30.12F
HAYS           SUNNY     67  43  41 VRB3      30.13F
RUSSELL        SUNNY     65  44  46 SW9       30.11F
CONCORDIA      SUNNY     62  43  49 S8        30.12F
SALINA         SUNNY     66  45  46 S13       30.13F
TOPEKA         SUNNY     69  43  38 S16       30.16F



USA.gov is the U.S. government's official web portal to all federal, state and local government web resources and services.